Location:  
MeteoStar


Sort by weather type Sort by elevation Sort by visibility Sort from west to east north Sort from north to south Alphabetically Sort from strongest wind speed Sort from lowest to highest pressure Sort from highest to lowest dew point temperature Sort coolest temperatures to warmest Sort warm temperatures to coolest
 Metric

Current Observations for Saudi Arabia

Abha17:00ZPartly Cloudy70 55CALM706856
Al Ahsa17:00ZNot Avail.91 481006.3N 8 88587
Al Baha17:00ZNot Avail.82 37E 7 805419
Al Qaysumah17:00ZNot Avail.90 5551007.6NE 6 871174
Al-Jouf17:00ZNot Avail.86 3651006.4ENE 9 832260
Arar17:00ZNot Avail.81 5251008.2ENE 8 801820
Bisha17:00ZNot Avail.86 361008.3ENE 12 833828
Dhahran17:00ZNot Avail.86 501004.0WNW 7 8485
Gassim17:00ZNot Avail.93 451005.9E 5 892125
Gizan17:00ZPartly Cloudy95 791005.1W 4 11119
Guriat17:00ZClear82 3951006.3E 8 801669
Hafr Al-Batin17:00ZNot Avail.91 5451008.4NNE 9 891354
Hail17:00ZNot Avail.91 4351006.0W 10 873330
Jeddah King Abdul Aziz International Airport 17:00ZNot Avail.90 7751004.1N 8 10249
Khamis Mushait17:00ZClear70 575E 8 706778
King Khaled International Airport17:00ZNot Avail.88 3451008.2ESE 5 842014
Madinah17:00ZNot Avail.97 3051006.8WNW 14 922145
Makkah17:00ZPartly Cloudy99 7051003.6NNE 3 1051017
Najran17:00ZPartly Cloudy86 3751008.1CALM833976
Rafha17:00ZNot Avail.88 3651007.4ENE 14 841473
Sharurah17:00ZNot Avail.93 2551006.4ENE 5 892362
Tabuk17:00ZNot Avail.86 4351005.8SSW 14 832552
Taif17:00ZClear82 4651009.7W 10 814849
Turaif17:00ZNot Avail.79 4551008.2E 10 792667
Wadi Al Dawasser Airport17:00ZNot Avail.91 5451006.0ESE 4 892047
Wejh17:00ZNot Avail.84 7251006.1NE 4 8965
Yenbo17:00ZNot Avail.90 7551004.1WSW 8 10026

Atlantic
Tropical Watch